User: anonymous   Login
Location: Petruro
(41.0333°N, 14.7833°E)
Time: 19:55:08
(UTC+00:00)
Language:

Cosmos 1538 Rocket - Orbit

View from above orbital plane
View from above orbital plane
View from above satellite
View from above satellite

Ground track
Ground track

The orbit data is extracted from the following two-line orbital elements,

1 14760U 84019B   21261.40527265  .00000017  00000-0  14749-4 0  9990
2 14760  74.0438 150.5093 0028064 346.2775  13.7612 14.35922678966449
Epoch (UTC): 18 September 2021 09:43:35
Eccentricity: 0.0028064
inclination: 74.0438°
perigee height: 752 km
apogee height: 792 km
right ascension of ascending node: 150.5093°
argument of perigee: 346.2775°
revolutions per day: 14.35922678
mean anomaly at epoch: 13.7612°
orbit number at epoch: 96644

The dashed part of the orbit path shows where the satellite is in the earth's shadow,  

DLR